Total_Precipitation_Accumulation
2.58 2.26 3.56 3.69 3.29 3.05 3.08 3.23 3.46 3.44 3.35 3.19 3.08 2.92 2.74 2.50 2.39 2.45 2.35 2.41 2.44 2.50 2.56 2.64 2.62 2.78 2.72 2.51 2.44 2.53 2.56 2.53 2.59 2.52 2.23 2.29 2.55 2.51 2.45 2.85 3.64 4.23 3.92
1.76 1.90 3.22 3.49 3.15 2.92 2.92 3.22 3.45 3.43 3.45 3.43 3.11 2.80 2.59 2.33 2.19 2.24 2.25 2.26 2.22 2.23 2.30 2.49 2.71 3.09 3.01 2.73 2.61 2.66 2.57 2.64 2.67 2.70 2.66 2.57 2.64 2.71 2.61 2.78 3.28 3.63 3.41
1.47 1.63 2.42 3.33 3.21 3.00 3.10 3.23 3.23 3.16 3.09 3.02 2.84 2.62 2.50 2.29 2.22 2.26 2.28 2.29 2.14 2.10 2.08 2.28 2.62 2.91 3.06 2.87 2.68 2.61 2.49 2.53 2.54 2.74 3.28 3.76 3.06 2.85 2.82 2.73 2.97 2.92 2.87
1.36 1.46 1.84 3.11 3.19 3.05 3.15 3.20 3.03 2.88 2.74 2.57 2.51 2.47 2.37 2.26 2.14 2.16 2.26 2.33 2.15 2.13 2.12 2.21 2.49 2.66 2.82 2.79 2.64 2.42 2.19 2.25 2.45 2.59 3.08 3.69 3.52 3.26 3.21 3.04 3.01 2.71 2.73
1.27 1.41 1.98 2.97 3.06 3.00 2.93 2.92 2.96 2.76 2.59 2.35 2.19 2.22 2.17 2.14 2.06 2.13 2.21 2.11 2.03 2.11 1.97 2.01 2.25 2.46 2.69 2.68 2.59 2.44 2.23 2.22 2.42 2.07 2.39 3.14 3.84 3.78 3.21 3.11 3.14 2.84 2.74
1.29 1.39 1.94 2.66 2.81 2.83 2.76 2.69 2.62 2.47 2.32 2.23 2.08 2.13 2.16 2.11 2.04 2.02 1.96 1.94 2.00 2.06 1.96 1.90 2.00 2.32 2.65 2.60 2.57 2.65 2.65 2.47 2.08 1.94 2.37 3.02 3.73 3.82 3.33 3.14 2.97 2.97 2.88
1.38 1.35 1.75 2.41 2.56 2.63 2.57 2.39 2.33 2.32 2.19 2.12 2.04 1.94 1.95 2.00 2.04 2.00 2.00 2.03 2.00 2.01 2.02 1.97 2.04 2.14 2.38 2.49 2.61 2.63 2.53 2.19 1.83 2.07 2.24 2.77 3.26 3.63 3.30 3.30 3.23 3.26 3.10
1.41 1.34 1.49 2.10 2.37 2.41 2.36 2.31 2.26 2.20 2.11 2.00 1.86 1.80 1.83 1.89 1.86 1.77 1.78 1.85 1.83 1.80 1.87 1.87 1.94 1.94 1.98 2.19 2.48 2.69 2.54 1.91 1.56 1.78 1.95 2.56 3.42 3.59 3.14 3.26 3.47 3.55 3.49
1.64 1.49 1.38 1.54 1.81 2.04 2.28 2.32 2.37 2.34 2.28 2.11 1.89 1.80 1.84 1.84 1.68 1.57 1.69 1.78 1.83 1.86 1.97 1.99 2.03 2.01 1.99 2.18 2.44 2.65 2.46 1.83 1.72 1.85 1.75 2.63 3.71 3.41 2.85 2.74 3.04 3.26 3.45
1.57 1.52 1.42 1.46 1.54 1.66 1.91 2.25 2.53 2.62 2.67 2.37 2.00 1.88 1.77 1.64 1.57 1.62 1.67 1.81 1.98 2.11 2.29 2.34 2.25 2.11 2.10 2.18 2.33 2.35 2.06 1.68 1.76 1.82 2.21 2.80 3.73 3.51 2.87 2.54 2.66 2.66 2.88
1.17 1.23 1.28 1.35 1.46 1.55 1.67 1.84 2.32 2.56 2.66 2.27 1.80 1.80 1.65 1.47 1.40 1.56 1.65 2.11 2.24 2.35 2.60 2.71 2.52 2.25 2.04 1.98 2.08 2.08 1.73 1.49 1.65 1.98 2.49 3.21 3.69 3.56 3.02 2.69 2.45 2.44 2.45
1.00 0.94 0.96 0.96 1.06 1.27 1.39 1.73 2.12 2.16 2.24 1.88 1.64 1.62 1.58 1.66 1.61 1.35 1.54 2.09 2.34 2.43 2.29 2.31 2.38 2.07 1.70 1.46 1.46 1.51 1.50 1.48 1.72 2.02 2.61 3.65 3.96 3.77 3.24 2.77 2.45 2.43 2.40
0.76 0.76 0.75 0.81 0.84 1.02 1.38 1.71 1.99 2.14 2.20 2.15 2.06 1.79 1.76 1.67 1.48 1.34 1.40 1.52 1.65 1.75 1.64 1.68 1.76 1.59 1.50 1.37 1.34 1.31 1.29 1.48 1.94 2.18 2.86 3.82 4.23 4.04 3.57 3.11 2.73 2.68 2.70
0.78 0.81 0.73 0.67 0.74 0.91 1.10 1.35 1.72 1.97 2.02 1.99 1.88 1.54 1.57 1.62 1.47 1.44 1.57 1.69 1.67 1.71 1.85 1.80 1.79 1.68 1.51 1.31 1.29 1.36 1.36 1.41 1.74 2.08 2.73 3.37 4.12 4.45 4.04 3.53 3.18 3.10 3.00
0.90 0.99 0.93 0.78 0.76 0.87 1.01 1.07 1.28 1.52 1.60 1.87 1.87 1.45 1.31 1.36 1.47 1.50 1.42 1.63 1.74 1.81 1.88 1.89 1.81 1.69 1.66 1.48 1.47 1.50 1.55 1.43 1.57 1.74 2.25 2.75 3.39 4.26 4.45 4.07 3.77 3.68 3.41
0.76 0.88 0.94 0.95 0.96 0.96 0.98 0.98 1.01 1.07 1.20 1.33 1.36 1.18 1.13 1.16 1.31 1.52 1.42 1.43 1.56 1.77 1.91 1.90 1.84 1.90 1.86 1.65 1.63 1.68 1.66 1.60 1.63 1.70 1.95 2.06 2.31 3.04 3.81 4.21 4.32 4.14 3.74
0.64 0.72 0.83 0.91 0.97 1.03 1.13 1.14 1.03 1.01 1.14 1.17 1.11 1.10 1.14 1.12 1.23 1.48 1.41 1.32 1.34 1.51 1.71 1.95 2.03 2.04 1.83 1.75 1.77 1.76 1.65 1.63 1.64 1.83 1.90 1.98 1.93 2.13 2.75 3.28 3.83 4.02 4.08
0.66 0.67 0.75 0.72 0.83 0.97 1.15 1.24 1.22 1.18 1.24 1.19 1.04 1.00 0.99 0.99 1.02 1.27 1.37 1.29 1.29 1.49 1.75 2.03 2.24 2.29 2.09 2.04 2.08 1.98 1.76 1.71 1.66 1.79 1.86 1.97 2.10 1.90 1.95 2.16 2.65 3.28 3.81
0.74 0.70 0.72 0.75 0.77 0.82 0.97 1.12 1.14 1.13 1.19 1.16 1.08 1.05 0.97 0.93 0.96 1.21 1.45 1.49 1.48 1.67 1.82 1.82 2.09 2.27 2.36 2.26 2.09 1.95 1.90 1.89 1.87 1.81 1.95 1.96 2.05 2.00 1.83 1.59 1.70 2.22 2.91
0.86 0.85 0.86 0.82 0.76 0.77 0.82 0.94 1.05 1.03 1.05 1.13 1.08 1.11 1.13 1.16 1.18 1.40 1.66 1.69 1.76 1.86 1.98 2.20 2.49 2.50 2.43 2.46 2.17 1.91 1.81 1.85 1.94 2.04 2.03 2.03 2.09 1.92 1.75 1.59 1.54 1.54 2.15
0.77 0.77 0.81 0.87 0.81 0.76 0.71 0.78 0.90 0.94 1.05 1.16 1.26 1.34 1.33 1.31 1.37 1.60 1.80 2.02 2.15 2.06 2.10 2.38 2.69 2.79 2.56 2.41 2.51 2.37 2.18 1.98 1.98 1.97 1.97 2.05 2.10 2.03 1.92 1.86 1.78 1.68 1.82
0.62 0.64 0.70 0.76 0.75 0.70 0.65 0.71 0.84 0.97 1.08 1.24 1.44 1.68 1.60 1.46 1.47 1.50 1.78 1.96 2.05 2.19 2.23 2.34 2.67 3.01 2.75 2.46 2.74 3.19 2.96 2.72 2.18 1.84 1.99 2.04 2.14 2.15 2.08 1.94 1.95 1.87 1.88
0.52 0.60 0.66 0.71 0.72 0.74 0.83 1.00 1.28 1.57 1.72 1.78 1.82 2.06 2.08 1.91 1.83 1.79 1.84 1.98 2.06 2.26 2.42 2.44 2.53 2.91 2.94 2.66 2.63 3.28 3.34 3.19 2.91 2.33 1.97 2.03 2.22 2.31 2.33 2.23 2.08 2.03 1.92
0.49 0.60 0.68 0.70 0.80 0.82 0.98 1.31 1.75 2.10 2.28 2.24 2.29 2.36 2.45 2.34 2.15 2.16 2.18 2.28 2.22 2.21 2.32 2.29 2.29 2.56 2.92 2.95 2.72 2.56 2.54 2.73 3.18 2.93 2.32 2.14 2.18 2.21 2.36 2.22 2.21 2.24 2.16
0.56 0.64 0.76 0.86 1.03 1.22 1.35 1.54 1.86 2.01 2.08 2.23 2.40 2.65 2.83 2.86 2.80 2.76 2.67 2.50 2.30 2.24 2.31 2.35 2.37 2.49 2.62 2.78 2.75 2.56 2.48 2.46 2.43 2.76 2.76 2.48 2.25 2.14 2.23 2.27 2.29 2.29 2.27
0.73 0.83 0.89 1.09 1.23 1.29 1.43 1.56 1.69 1.76 1.87 2.09 2.27 2.52 2.71 2.75 2.81 2.74 2.55 2.26 2.10 2.05 2.14 2.31 2.34 2.42 2.44 2.51 2.47 2.31 2.30 2.34 2.40 2.62 2.64 2.58 2.53 2.21 2.04 2.07 2.13 2.18 2.07